When you browse on this site, cookies collect data to enhance your experience and personalize the content and advertising you see.
Visit our Privacy Policy to learn more. By continuing to use the site, you agree to this use of cookies and data.
  • In Austria
  • List of Countries
  • For 7 days
  • Water Temperature
  • Weather Map
  • News
  • Weather Widgets
  • user-avatar
    Login

    Hourly Weather San Juan

    Today, 30 May, Saturday

    Time Temperature Precipitation Wind Pressure Humidity
    00:00 +8°C° 0 mm 6 mps 706 mmHg 78%
    01:00 +8°C° 0 mm 6 mps 707 mmHg 79%
    02:00 +7°C° 0 mm 6 mps 707 mmHg 79%
    03:00 +7°C° 0 mm 6 mps 707 mmHg 78%
    04:00 +7°C° 0 mm 6 mps 707 mmHg 77%
    05:00 +7°C° 0 mm 6 mps 708 mmHg 76%
    06:00 +5°C° 0 mm 6 mps 708 mmHg 75%
    07:00 +5°C° 0 mm 6 mps 709 mmHg 74%
    08:00 +5°C° 0 mm 6 mps 709 mmHg 70%
    09:00 +7°C° 0 mm 6 mps 709 mmHg 66%
    10:00 +7°C° 0 mm 6 mps 710 mmHg 63%
    11:00 +8°C° 0 mm 5 mps 709 mmHg 58%
    12:00 +9°C° 0 mm 5 mps 709 mmHg 53%
    13:00 +10°C° 0 mm 4 mps 709 mmHg 49%
    14:00 +10°C° 0 mm 4 mps 709 mmHg 46%
    15:00 +10°C° 0 mm 4 mps 709 mmHg 42%
    16:00 +10°C° 0 mm 4 mps 709 mmHg 39%
    17:00 +10°C° 0 mm 3 mps 709 mmHg 39%
    18:00 +10°C° 0 mm 2 mps 710 mmHg 38%
    19:00 +10°C° 0 mm 1 mps 710 mmHg 38%
    20:00 +10°C° 0.1 mm 1 mps 710 mmHg 42%
    21:00 +10°C° 0.1 mm 1 mps 710 mmHg 46%
    22:00 +8°C° 0.1 mm 2 mps 710 mmHg 50%
    23:00 +8°C° 0 mm 2 mps 710 mmHg 53%

    Tomorrow, 31 May, Sunday

    Time Temperature Precipitation Wind Pressure Humidity
    00:00 +8°C° 0 mm 1 mps 710 mmHg 56%
    01:00 +8°C° 0 mm 1 mps 710 mmHg 59%
    02:00 +7°C° 0 mm 1 mps 710 mmHg 62%
    03:00 +7°C° 0 mm 1 mps 710 mmHg 64%
    04:00 +6°C° 0 mm 1 mps 709 mmHg 66%
    05:00 +7°C° 0 mm 1 mps 709 mmHg 65%
    06:00 +7°C° 0 mm 1 mps 710 mmHg 64%
    07:00 +8°C° 0 mm 1 mps 710 mmHg 63%
    08:00 +8°C° 0 mm 2 mps 710 mmHg 58%
    09:00 +10°C° 0 mm 2 mps 710 mmHg 53%
    10:00 +12°C° 0 mm 2 mps 710 mmHg 48%
    11:00 +13°C° 0 mm 2 mps 709 mmHg 45%
    12:00 +14°C° 0 mm 2 mps 709 mmHg 42%
    13:00 +15°C° 0 mm 2 mps 708 mmHg 39%
    14:00 +15°C° 0 mm 2 mps 708 mmHg 39%
    15:00 +15°C° 0 mm 2 mps 708 mmHg 38%
    16:00 +15°C° 0 mm 2 mps 708 mmHg 38%
    17:00 +14°C° 0 mm 1 mps 708 mmHg 40%
    18:00 +12°C° 0 mm 1 mps 709 mmHg 43%
    19:00 +11°C° 0 mm 1 mps 709 mmHg 45%
    20:00 +10°C° 0 mm 1 mps 709 mmHg 47%
    21:00 +10°C° 0 mm 1 mps 709 mmHg 48%
    22:00 +9°C° 0 mm 1 mps 709 mmHg 50%
    23:00 +9°C° 0 mm 1 mps 709 mmHg 51%

    Day after tomorrow, 1 June, Monday

    Time Temperature Precipitation Wind Pressure Humidity
    00:00 +8°C° 0 mm 0 mps 709 mmHg 52%
    01:00 +7°C° 0 mm 0 mps 709 mmHg 53%
    02:00 +7°C° 0 mm 0 mps 709 mmHg 55%
    03:00 +7°C° 0 mm 0 mps 708 mmHg 57%
    04:00 +6°C° 0 mm 0 mps 708 mmHg 59%
    05:00 +8°C° 0 mm 1 mps 709 mmHg 57%
    06:00 +8°C° 0 mm 1 mps 709 mmHg 56%
    07:00 +9°C° 0 mm 1 mps 709 mmHg 54%
    08:00 +10°C° 0 mm 2 mps 710 mmHg 48%
    09:00 +13°C° 0 mm 3 mps 710 mmHg 41%
    10:00 +16°C° 0 mm 3 mps 710 mmHg 35%
    11:00 +17°C° 0 mm 3 mps 709 mmHg 33%
    12:00 +18°C° 0 mm 3 mps 709 mmHg 31%
    13:00 +19°C° 0 mm 3 mps 708 mmHg 29%
    14:00 +19°C° 0 mm 2 mps 708 mmHg 30%
    15:00 +19°C° 0 mm 2 mps 708 mmHg 30%
    16:00 +19°C° 0 mm 1 mps 708 mmHg 31%
    17:00 +16°C° 0 mm 1 mps 708 mmHg 35%
    18:00 +15°C° 0 mm 1 mps 708 mmHg 39%
    19:00 +13°C° 0 mm 1 mps 708 mmHg 43%
    20:00 +12°C° 0 mm 1 mps 708 mmHg 45%
    21:00 +12°C° 0 mm 1 mps 708 mmHg 46%
    22:00 +10°C° 0 mm 0 mps 708 mmHg 48%
    23:00 +11°C° 0 mm 1 mps 708 mmHg 49%

    2 June, Tuesday

    Time Temperature Precipitation Wind Pressure Humidity
    00:00 +11°C° 0 mm 1 mps 707 mmHg 50%
    01:00 +10°C° 0 mm 1 mps 707 mmHg 51%
    02:00 +10°C° 0 mm 1 mps 706 mmHg 53%
    03:00 +10°C° 0 mm 1 mps 706 mmHg 56%
    04:00 +9°C° 0 mm 1 mps 706 mmHg 59%
    05:00 +9°C° 0 mm 1 mps 706 mmHg 56%
    06:00 +8°C° 0 mm 0 mps 706 mmHg 54%
    07:00 +9°C° 0 mm 0 mps 706 mmHg 52%
    08:00 +12°C° 0 mm 1 mps 706 mmHg 46%
    09:00 +14°C° 0 mm 1 mps 706 mmHg 39%
    10:00 +18°C° 0 mm 1 mps 706 mmHg 33%
    11:00 +19°C° 0 mm 1 mps 705 mmHg 31%
    12:00 +19°C° 0 mm 2 mps 704 mmHg 30%
    13:00 +19°C° 0 mm 2 mps 703 mmHg 28%
    14:00 +19°C° 0 mm 2 mps 703 mmHg 28%
    15:00 +19°C° 0 mm 2 mps 702 mmHg 29%
    16:00 +19°C° 0 mm 2 mps 702 mmHg 30%
    17:00 +17°C° 0 mm 2 mps 702 mmHg 34%
    18:00 +15°C° 0 mm 2 mps 702 mmHg 38%
    19:00 +13°C° 0 mm 2 mps 701 mmHg 43%
    20:00 +13°C° 0 mm 2 mps 701 mmHg 44%
    21:00 +13°C° 0 mm 2 mps 701 mmHg 45%
    22:00 +12°C° 0 mm 2 mps 701 mmHg 46%
    23:00 +11°C° 0 mm 3 mps 701 mmHg 49%

    3 June, Wednesday

    Time Temperature Precipitation Wind Pressure Humidity
    00:00 +10°C° 0 mm 4 mps 702 mmHg 52%
    01:00 +9°C° 0 mm 5 mps 702 mmHg 54%
    02:00 +8°C° 0 mm 7 mps 702 mmHg 61%
    03:00 +6°C° 0 mm 8 mps 703 mmHg 68%
    04:00 +5°C° 0 mm 10 mps 703 mmHg 75%
    05:00 +4°C° 0.2 mm 11 mps 704 mmHg 79%
    06:00 +3°C° 0.2 mm 11 mps 705 mmHg 82%
    07:00 +3°C° 0.2 mm 12 mps 706 mmHg 86%
    08:00 +3°C° 1.3 mm 12 mps 707 mmHg 85%
    09:00 +3°C° 1.3 mm 12 mps 708 mmHg 84%
    10:00 +1°C° 1.3 mm 13 mps 709 mmHg 84%
    11:00 +2°C° 1 mm 12 mps 710 mmHg 83%
    12:00 +3°C° 1 mm 11 mps 710 mmHg 83%
    13:00 +3°C° 1 mm 10 mps 710 mmHg 82%
    14:00 +3°C° 0.4 mm 10 mps 711 mmHg 82%
    15:00 +3°C° 0.4 mm 9 mps 711 mmHg 82%
    16:00 +3°C° 0.4 mm 9 mps 711 mmHg 82%
    17:00 +4°C° 0.1 mm 8 mps 712 mmHg 83%
    18:00 +3°C° 0.1 mm 7 mps 713 mmHg 85%
    19:00 +3°C° 0.1 mm 7 mps 713 mmHg 87%
    20:00 +3°C° 0.1 mm 6 mps 713 mmHg 86%
    21:00 +3°C° 0.1 mm 5 mps 714 mmHg 86%
    22:00 +5°C° 0.1 mm 4 mps 714 mmHg 85%
    23:00 +5°C° 0.1 mm 4 mps 714 mmHg 85%

    4 June, Thursday

    Time Temperature Precipitation Wind Pressure Humidity
    00:00 +5°C° 0.1 mm 3 mps 714 mmHg 85%
    01:00 +6°C° 0.1 mm 2 mps 713 mmHg 85%
    02:00 +6°C° 0 mm 2 mps 713 mmHg 84%
    03:00 +7°C° 0 mm 1 mps 713 mmHg 83%
    04:00 +7°C° 0 mm 1 mps 712 mmHg 82%
    05:00 +7°C° 0 mm 1 mps 712 mmHg 83%
    06:00 +6°C° 0 mm 1 mps 712 mmHg 83%
    07:00 +6°C° 0 mm 1 mps 712 mmHg 84%
    08:00 +6°C° 0 mm 2 mps 712 mmHg 78%
    09:00 +7°C° 0 mm 2 mps 712 mmHg 72%
    10:00 +8°C° 0 mm 3 mps 712 mmHg 66%
    11:00 +9°C° 0 mm 3 mps 711 mmHg 61%
    12:00 +10°C° 0 mm 3 mps 710 mmHg 56%
    13:00 +11°C° 0 mm 3 mps 709 mmHg 52%
    14:00 +11°C° 0 mm 3 mps 709 mmHg 51%
    15:00 +11°C° 0 mm 3 mps 709 mmHg 51%
    16:00 +11°C° 0 mm 4 mps 709 mmHg 50%
    17:00 +10°C° 0 mm 3 mps 709 mmHg 53%
    18:00 +9°C° 0 mm 3 mps 709 mmHg 56%
    19:00 +8°C° 0 mm 2 mps 709 mmHg 59%
    20:00 +8°C° 0 mm 2 mps 709 mmHg 60%
    21:00 +9°C° 0 mm 1 mps 709 mmHg 61%
    22:00 +8°C° 0 mm 1 mps 709 mmHg 62%
    23:00 +8°C° 0 mm 1 mps 709 mmHg 60%
    Show more